SAS1817 EDDL-EKCH

Flight info

Callsign SAS1817
Flight time 1h 4m
Altitude 35000
Route MEVEL4T/23L MEVEL Y850 BASUM M170 STADE DCT MEGAR P605 GESKA Z711 MONAK MONAK5C
Aircraft A320/M-SDE3FGHIRWY/LB1

Departure

Time 2026-05-04 18:14
Airport Düsseldorf Airport (EDDL)

Arrival

Time 2026-05-04 19:18
Airport Copenhagen Kastrup Airport (EKCH)
Time Latitude Longitude Altitude Speed Heading
2026-05-04 17:43 51.27943 6.76174 125 ft 0 kts 91°
2026-05-04 17:45 51.27943 6.76173 130 ft 0 kts 91°
2026-05-04 18:03 51.27943 6.76157 130 ft 2 kts 91°
2026-05-04 18:03 51.27943 6.76130 126 ft 2 kts 91°
2026-05-04 18:04 51.27943 6.76102 126 ft 2 kts 91°
2026-05-04 18:04 51.27943 6.76075 126 ft 2 kts 49°
2026-05-04 18:04 51.27934 6.76063 126 ft 0 kts
2026-05-04 18:06 51.27960 6.76055 126 ft 8 kts 347°
2026-05-04 18:06 51.28013 6.76047 124 ft 6 kts 359°
2026-05-04 18:07 51.28053 6.76048 128 ft 7 kts 360°
2026-05-04 18:07 51.28122 6.76037 130 ft 10 kts 16°
2026-05-04 18:07 51.28173 6.76112 127 ft 8 kts 52°
2026-05-04 18:07 51.28187 6.76142 128 ft 1 kts 53°
2026-05-04 18:08 51.28191 6.76149 129 ft 0 kts 53°
2026-05-04 18:08 51.28206 6.76183 123 ft 13 kts 53°
2026-05-04 18:08 51.28299 6.76378 123 ft 26 kts 53°
2026-05-04 18:08 51.28417 6.76624 123 ft 29 kts 52°
2026-05-04 18:09 51.28656 6.77128 127 ft 29 kts 52°
2026-05-04 18:09 51.28903 6.77645 129 ft 30 kts 52°
2026-05-04 18:10 51.29029 6.77912 129 ft 30 kts 53°
2026-05-04 18:10 51.29155 6.78175 136 ft 29 kts 52°
2026-05-04 18:10 51.29271 6.78416 145 ft 26 kts 52°
2026-05-04 18:10 51.29336 6.78550 151 ft 10 kts 51°
2026-05-04 18:11 51.29375 6.78574 152 ft 0 kts 359°
2026-05-04 18:11 51.29440 6.78566 152 ft 20 kts 357°
2026-05-04 18:11 51.29525 6.78515 153 ft 11 kts 282°
2026-05-04 18:12 51.29501 6.78430 150 ft 0 kts 232°
2026-05-04 18:13 51.29489 6.78406 150 ft 13 kts 232°
2026-05-04 18:13 51.29268 6.77944 140 ft 89 kts 233°
2026-05-04 18:13 51.28117 6.75489 508 ft 161 kts 234°
2026-05-04 18:14 51.27471 6.74000 1135 ft 168 kts 233°
2026-05-04 18:14 51.26842 6.72311 1528 ft 189 kts 253°
2026-05-04 18:14 51.27029 6.70196 2121 ft 201 kts 302°
2026-05-04 18:15 51.29497 6.68361 3548 ft 215 kts
2026-05-04 18:15 51.32803 6.68924 4328 ft 263 kts
2026-05-04 18:15 51.34673 6.69158 5032 ft 274 kts
2026-05-04 18:16 51.36597 6.69369 5917 ft 279 kts
2026-05-04 18:16 51.38546 6.69570 6781 ft 283 kts
2026-05-04 18:16 51.40523 6.69683 7671 ft 285 kts
2026-05-04 18:17 51.44521 6.69674 9489 ft 289 kts
2026-05-04 18:17 51.46543 6.69645 10283 ft 296 kts
2026-05-04 18:17 51.50957 6.69616 11021 ft 333 kts
2026-05-04 18:18 51.53297 6.69617 11684 ft 341 kts
2026-05-04 18:18 51.55748 6.69622 11849 ft 363 kts
2026-05-04 18:18 51.58327 6.69864 12107 ft 379 kts 11°
2026-05-04 18:18 51.60867 6.71090 12690 ft 384 kts 25°
2026-05-04 18:19 51.65096 6.76311 13978 ft 389 kts 49°
2026-05-04 18:19 51.66902 6.79596 14525 ft 395 kts 49°
2026-05-04 18:19 51.68780 6.82874 14973 ft 402 kts 47°
2026-05-04 18:20 51.70709 6.86171 15489 ft 406 kts 47°
2026-05-04 18:20 51.72662 6.89497 16009 ft 410 kts 47°
2026-05-04 18:20 51.74626 6.92861 16537 ft 414 kts 48°
2026-05-04 18:20 51.76601 6.96273 17058 ft 418 kts 48°
2026-05-04 18:21 51.78588 6.99731 17566 ft 422 kts 48°
2026-05-04 18:21 51.80586 7.03231 18074 ft 425 kts 49°
2026-05-04 18:21 51.82596 7.06772 18532 ft 429 kts 49°
2026-05-04 18:21 51.84621 7.10351 18965 ft 433 kts 49°
2026-05-04 18:22 51.86632 7.13907 19388 ft 436 kts 48°
2026-05-04 18:22 51.88686 7.17538 19804 ft 439 kts 48°
2026-05-04 18:22 51.90761 7.21199 20218 ft 443 kts 48°
2026-05-04 18:22 51.92855 7.24894 20628 ft 446 kts 48°
2026-05-04 18:23 51.94959 7.28613 21026 ft 450 kts 48°
2026-05-04 18:23 51.97078 7.32369 21415 ft 453 kts 48°
2026-05-04 18:23 51.99214 7.36166 21779 ft 457 kts 48°
2026-05-04 18:23 52.01368 7.40001 22079 ft 462 kts 48°
2026-05-04 18:24 52.03540 7.43871 22424 ft 466 kts 48°
2026-05-04 18:24 52.05728 7.47778 22790 ft 469 kts 48°
2026-05-04 18:24 52.07935 7.51704 23144 ft 472 kts 46°
2026-05-04 18:24 52.10481 7.55075 23488 ft 475 kts 31°
2026-05-04 18:25 52.13378 7.57703 23778 ft 478 kts 28°
2026-05-04 18:25 52.16307 7.60287 24088 ft 481 kts 28°
2026-05-04 18:25 52.19260 7.62878 24390 ft 483 kts 27°
2026-05-04 18:25 52.22226 7.65481 24676 ft 485 kts 27°
2026-05-04 18:26 52.25207 7.68104 24965 ft 488 kts 27°
2026-05-04 18:26 52.28197 7.70740 25242 ft 490 kts 27°
2026-05-04 18:26 52.31198 7.73395 25536 ft 492 kts 27°
2026-05-04 18:26 52.34211 7.76069 25798 ft 494 kts 27°
2026-05-04 18:27 52.37238 7.78760 26066 ft 496 kts 27°
2026-05-04 18:27 52.40278 7.81467 26332 ft 498 kts 27°
2026-05-04 18:27 52.43326 7.84185 26587 ft 501 kts 27°
2026-05-04 18:27 52.46398 7.86929 26839 ft 503 kts 27°
2026-05-04 18:28 52.49476 7.89686 27090 ft 505 kts 27°
2026-05-04 18:28 52.52562 7.92454 27330 ft 507 kts 27°
2026-05-04 18:28 52.55671 7.95248 27550 ft 510 kts 27°
2026-05-04 18:28 52.58790 7.98053 27802 ft 511 kts 27°
2026-05-04 18:29 52.61905 8.00856 28138 ft 511 kts 27°
2026-05-04 18:29 52.65028 8.03667 28453 ft 511 kts 27°
2026-05-04 18:29 52.68149 8.06484 28752 ft 512 kts 27°
2026-05-04 18:29 52.71264 8.09309 29076 ft 512 kts 27°
2026-05-04 18:30 52.77505 8.14987 29757 ft 512 kts 26°
2026-05-04 18:30 52.80623 8.17824 30093 ft 512 kts 26°
2026-05-04 18:30 52.83741 8.20663 30378 ft 512 kts 26°
2026-05-04 18:31 52.86855 8.23503 30682 ft 511 kts 26°
2026-05-04 18:31 52.89967 8.26349 30991 ft 511 kts 26°
2026-05-04 18:31 52.93073 8.29194 31300 ft 510 kts 26°
2026-05-04 18:31 52.96175 8.32047 31612 ft 510 kts 26°
2026-05-04 18:32 52.99263 8.34918 31918 ft 509 kts 26°
2026-05-04 18:32 53.02348 8.37815 32245 ft 508 kts 26°
2026-05-04 18:32 53.05415 8.40714 32562 ft 507 kts 26°
2026-05-04 18:32 53.08482 8.43616 32877 ft 506 kts 26°
2026-05-04 18:33 53.11543 8.46507 33197 ft 506 kts 26°
2026-05-04 18:33 53.14598 8.49391 33507 ft 505 kts 26°
2026-05-04 18:33 53.17653 8.52275 33823 ft 504 kts 26°
2026-05-04 18:33 53.20705 8.55152 34107 ft 504 kts 26°
2026-05-04 18:34 53.23749 8.58031 34372 ft 503 kts 26°
2026-05-04 18:34 53.26787 8.60914 34660 ft 502 kts 26°
2026-05-04 18:34 53.29818 8.63798 34919 ft 501 kts 26°
2026-05-04 18:35 53.35857 8.69566 34991 ft 499 kts 26°
2026-05-04 18:35 53.41853 8.75300 34997 ft 493 kts 26°
2026-05-04 18:36 53.47761 8.80972 34979 ft 486 kts 26°
2026-05-04 18:36 53.53591 8.86574 34998 ft 486 kts 26°
2026-05-04 18:37 53.59456 8.92227 34998 ft 486 kts 26°
2026-05-04 18:37 53.65311 8.97905 34996 ft 486 kts 26°
2026-05-04 18:38 53.71160 9.03591 35021 ft 484 kts 25°
2026-05-04 18:38 53.76991 9.09280 35018 ft 483 kts 26°
2026-05-04 18:39 53.82808 9.14983 35013 ft 483 kts 26°
2026-05-04 18:39 53.88610 9.20689 35006 ft 482 kts 26°
2026-05-04 18:40 53.94413 9.26396 35014 ft 482 kts 26°
2026-05-04 18:40 54.00209 9.32111 35005 ft 482 kts 26°
2026-05-04 18:41 54.05997 9.37845 35002 ft 481 kts 26°
2026-05-04 18:41 54.10801 9.42629 35001 ft 481 kts 26°
2026-05-04 18:42 54.16584 9.48398 35018 ft 481 kts 26°
2026-05-04 18:42 54.22364 9.54183 35017 ft 481 kts 26°
2026-05-04 18:43 54.28143 9.59979 35013 ft 481 kts 26°
2026-05-04 18:43 54.33916 9.65786 35004 ft 481 kts 26°
2026-05-04 18:44 54.39684 9.71615 34998 ft 481 kts 26°
2026-05-04 18:44 54.45447 9.77454 35000 ft 481 kts 26°
2026-05-04 18:45 54.51212 9.83315 34997 ft 481 kts 26°
2026-05-04 18:45 54.56968 9.89197 34998 ft 481 kts 26°
2026-05-04 18:46 54.62725 9.95102 34992 ft 481 kts 27°
2026-05-04 18:46 54.68462 10.00996 34338 ft 479 kts 26°
2026-05-04 18:46 54.71328 10.03946 33527 ft 480 kts 26°
2026-05-04 18:47 54.74209 10.06912 32578 ft 483 kts 26°
2026-05-04 18:47 54.77114 10.09904 31555 ft 489 kts 25°
2026-05-04 18:47 54.80055 10.12941 30497 ft 496 kts 25°
2026-05-04 18:47 54.83041 10.16028 29534 ft 502 kts 25°
2026-05-04 18:48 54.86002 10.19098 28842 ft 502 kts 26°
2026-05-04 18:48 54.88989 10.22212 27991 ft 499 kts 27°
2026-05-04 18:48 54.91952 10.25315 27047 ft 497 kts 27°
2026-05-04 18:48 54.94898 10.28461 26061 ft 497 kts 28°
2026-05-04 18:49 54.97857 10.31703 25041 ft 496 kts 29°
2026-05-04 18:49 55.00769 10.34942 24021 ft 495 kts 30°
2026-05-04 18:49 55.03628 10.38138 22912 ft 495 kts 30°
2026-05-04 18:49 55.06528 10.41373 21723 ft 495 kts 30°
2026-05-04 18:50 55.09419 10.44593 20843 ft 490 kts 30°
2026-05-04 18:50 55.12301 10.47796 20336 ft 477 kts 30°
2026-05-04 18:50 55.15003 10.50796 20204 ft 457 kts 29°
2026-05-04 18:50 55.17632 10.53718 20072 ft 439 kts 29°
2026-05-04 18:51 55.20155 10.56524 19942 ft 422 kts 29°
2026-05-04 18:51 55.22588 10.59233 19823 ft 406 kts 29°
2026-05-04 18:51 55.24819 10.62147 19692 ft 396 kts 39°
2026-05-04 18:51 55.26672 10.65633 19568 ft 386 kts 50°
2026-05-04 18:52 55.28112 10.69529 19448 ft 376 kts 60°
2026-05-04 18:52 55.29121 10.73692 19323 ft 367 kts 71°
2026-05-04 18:52 55.29850 10.77936 19077 ft 360 kts 72°
2026-05-04 18:52 55.30566 10.82132 18751 ft 358 kts 72°
2026-05-04 18:53 55.31277 10.86306 18377 ft 356 kts 72°
2026-05-04 18:53 55.31981 10.90464 17993 ft 355 kts 72°
2026-05-04 18:53 55.32682 10.94607 17611 ft 353 kts 72°
2026-05-04 18:53 55.33378 10.98723 17241 ft 351 kts 72°
2026-05-04 18:54 55.34064 11.02824 16876 ft 349 kts 72°
2026-05-04 18:54 55.34743 11.06906 16522 ft 347 kts 72°
2026-05-04 18:54 55.35418 11.10971 16175 ft 345 kts 72°
2026-05-04 18:54 55.36086 11.15014 15828 ft 344 kts 72°
2026-05-04 18:55 55.36748 11.19040 15487 ft 343 kts 72°
2026-05-04 18:55 55.38055 11.26972 15096 ft 329 kts 73°
2026-05-04 18:55 55.38667 11.30695 14980 ft 314 kts 73°
2026-05-04 18:56 55.39264 11.34341 14848 ft 307 kts 72°
2026-05-04 18:56 55.39850 11.37925 14652 ft 303 kts 73°
2026-05-04 18:56 55.40428 11.41481 14408 ft 302 kts 73°
2026-05-04 18:56 55.41005 11.45022 14162 ft 301 kts 73°
2026-05-04 18:57 55.41577 11.48549 13914 ft 299 kts 73°
2026-05-04 18:57 55.42147 11.52065 13658 ft 298 kts 73°
2026-05-04 18:57 55.42714 11.55569 13377 ft 297 kts 73°
2026-05-04 18:57 55.43308 11.59031 13099 ft 295 kts 68°
2026-05-04 18:58 55.44181 11.62267 12819 ft 291 kts 56°
2026-05-04 18:58 55.45398 11.65050 12543 ft 283 kts 35°
2026-05-04 18:58 55.47062 11.66750 12249 ft 275 kts 17°
2026-05-04 18:58 55.48832 11.67986 12007 ft 272 kts 15°
2026-05-04 18:59 55.50606 11.69157 11957 ft 272 kts 15°
2026-05-04 18:59 55.52384 11.70321 11963 ft 273 kts 15°
2026-05-04 18:59 55.54166 11.71487 11964 ft 273 kts 15°
2026-05-04 18:59 55.55951 11.72653 11969 ft 273 kts 15°
2026-05-04 19:00 55.57733 11.73818 11925 ft 273 kts 15°
2026-05-04 19:00 55.59507 11.74981 11638 ft 271 kts 15°
2026-05-04 19:00 55.61273 11.76138 11355 ft 270 kts 15°
2026-05-04 19:00 55.63030 11.77286 11072 ft 269 kts 15°
2026-05-04 19:01 55.64779 11.78427 10792 ft 267 kts 15°
2026-05-04 19:01 55.66518 11.79560 10507 ft 266 kts 15°
2026-05-04 19:01 55.68246 11.80686 10235 ft 264 kts 15°
2026-05-04 19:01 55.69903 11.82103 9951 ft 269 kts 37°
2026-05-04 19:02 55.70972 11.84803 9643 ft 273 kts 72°
2026-05-04 19:02 55.71213 11.88134 9284 ft 274 kts 87°
2026-05-04 19:02 55.71438 11.91471 8940 ft 273 kts 77°
2026-05-04 19:02 55.71819 11.94756 8609 ft 271 kts 77°
2026-05-04 19:03 55.72199 11.98024 8300 ft 270 kts 77°
2026-05-04 19:03 55.72581 12.01270 8003 ft 267 kts 77°
2026-05-04 19:03 55.72957 12.04455 7967 ft 268 kts 77°
2026-05-04 19:03 55.73309 12.07755 7967 ft 270 kts 85°
2026-05-04 19:04 55.73238 12.11076 7971 ft 270 kts 95°
2026-05-04 19:04 55.73093 12.14349 7971 ft 270 kts 95°
2026-05-04 19:04 55.72942 12.17664 7971 ft 270 kts 95°
2026-05-04 19:04 55.72787 12.20967 7797 ft 268 kts 95°
2026-05-04 19:05 55.72632 12.24254 7460 ft 267 kts 95°
2026-05-04 19:05 55.72479 12.27525 7142 ft 265 kts 95°
2026-05-04 19:05 55.72326 12.30767 6832 ft 263 kts 96°
2026-05-04 19:05 55.72145 12.33990 6515 ft 262 kts 97°
2026-05-04 19:06 55.71942 12.37177 6196 ft 260 kts 97°
2026-05-04 19:06 55.71733 12.40361 5865 ft 258 kts 97°
2026-05-04 19:06 55.71527 12.43513 5534 ft 256 kts 97°
2026-05-04 19:06 55.71325 12.46651 5200 ft 255 kts 96°
2026-05-04 19:07 55.71323 12.49783 4895 ft 253 kts 83°
2026-05-04 19:07 55.71676 12.52818 4569 ft 250 kts 70°
2026-05-04 19:07 55.72349 12.55633 4253 ft 246 kts 60°
2026-05-04 19:07 55.73125 12.58321 4032 ft 243 kts 60°
2026-05-04 19:08 55.73893 12.61002 4005 ft 244 kts 60°
2026-05-04 19:08 55.74735 12.63597 4006 ft 242 kts 51°
2026-05-04 19:08 55.75832 12.65840 4005 ft 239 kts 39°
2026-05-04 19:08 55.77081 12.67783 4005 ft 239 kts 37°
2026-05-04 19:09 55.78337 12.69731 4003 ft 239 kts 37°
2026-05-04 19:09 55.79493 12.71856 4001 ft 242 kts 51°
2026-05-04 19:09 55.80427 12.74346 3999 ft 242 kts 55°
2026-05-04 19:09 55.81326 12.76888 3998 ft 243 kts 55°
2026-05-04 19:10 55.82215 12.79432 3996 ft 242 kts 55°
2026-05-04 19:10 55.83105 12.81982 3993 ft 243 kts 55°
2026-05-04 19:10 55.83994 12.84524 3776 ft 241 kts 55°
2026-05-04 19:10 55.84876 12.87057 3473 ft 239 kts 56°
2026-05-04 19:11 55.85654 12.89590 3342 ft 230 kts 71°
2026-05-04 19:11 55.85699 12.92361 3215 ft 224 kts 107°
2026-05-04 19:11 55.84911 12.94647 3096 ft 214 kts 141°
2026-05-04 19:11 55.83638 12.95814 2994 ft 202 kts 173°
2026-05-04 19:12 55.82308 12.95727 2994 ft 191 kts 201°
2026-05-04 19:12 55.80199 12.93057 3000 ft 185 kts 225°
2026-05-04 19:12 55.79236 12.91540 2998 ft 185 kts 225°
2026-05-04 19:13 55.78272 12.90026 2998 ft 185 kts 226°
2026-05-04 19:13 55.77322 12.88536 2999 ft 185 kts 225°
2026-05-04 19:13 55.76356 12.87023 3000 ft 185 kts 225°
2026-05-04 19:13 55.75392 12.85515 3001 ft 185 kts 225°
2026-05-04 19:14 55.74426 12.84003 3000 ft 185 kts 225°
2026-05-04 19:14 55.73460 12.82494 3004 ft 185 kts 225°
2026-05-04 19:14 55.72493 12.80983 2937 ft 186 kts 225°
2026-05-04 19:14 55.71525 12.79472 2753 ft 185 kts 225°
2026-05-04 19:15 55.70562 12.77970 2536 ft 184 kts 226°
2026-05-04 19:15 55.69603 12.76477 2268 ft 183 kts 226°
2026-05-04 19:15 55.68651 12.74992 2016 ft 181 kts 225°
2026-05-04 19:15 55.67740 12.73578 1787 ft 165 kts 226°
2026-05-04 19:16 55.66913 12.72294 1566 ft 154 kts 226°
2026-05-04 19:16 55.66122 12.71063 1353 ft 149 kts 226°
2026-05-04 19:16 55.65347 12.69856 1147 ft 147 kts 225°
2026-05-04 19:16 55.64587 12.68675 943 ft 142 kts 225°
2026-05-04 19:17 55.63846 12.67536 737 ft 140 kts 225°
2026-05-04 19:17 55.63124 12.66404 519 ft 138 kts 225°
2026-05-04 19:17 55.62402 12.65283 357 ft 138 kts 224°
2026-05-04 19:17 55.61686 12.64169 161 ft 137 kts 224°
2026-05-04 19:18 55.60973 12.63063 28 ft 133 kts 224°
2026-05-04 19:18 55.60434 12.62222 25 ft 78 kts 221°
2026-05-04 19:18 55.60107 12.61715 28 ft 38 kts 221°
2026-05-04 19:18 55.60040 12.61495 26 ft 18 kts 304°
2026-05-04 19:19 55.60151 12.61534 25 ft 20 kts 40°
2026-05-04 19:19 55.60262 12.61707 24 ft 22 kts 41°
2026-05-04 19:19 55.60392 12.61908 25 ft 27 kts 41°
2026-05-04 19:19 55.60555 12.62158 24 ft 34 kts 41°
2026-05-04 19:20 55.60750 12.62388 26 ft 34 kts 21°
2026-05-04 19:20 55.60944 12.62634 24 ft 35 kts 41°
2026-05-04 19:20 55.61129 12.62920 24 ft 36 kts 41°
2026-05-04 19:20 55.61311 12.63201 24 ft 23 kts 40°
2026-05-04 19:21 55.61412 12.63358 24 ft 22 kts 41°
2026-05-04 19:21 55.61531 12.63543 24 ft 16 kts 42°
2026-05-04 19:21 55.61580 12.63619 24 ft 0 kts 41°
2026-05-04 19:22 55.61592 12.63638 24 ft 10 kts 41°
2026-05-04 19:23 55.61673 12.63764 24 ft 12 kts 41°
2026-05-04 19:23 55.61721 12.63838 24 ft 8 kts 41°
2026-05-04 19:23 55.61759 12.63896 25 ft 8 kts 41°
2026-05-04 19:23 55.61847 12.64030 25 ft 24 kts 40°
2026-05-04 19:24 55.61998 12.64175 24 ft 26 kts 25°
2026-05-04 19:24 55.62163 12.64312 23 ft 24 kts 26°
2026-05-04 19:24 55.62297 12.64405 23 ft 15 kts 14°
2026-05-04 19:24 55.62336 12.64421 23 ft 3 kts 14°
2026-05-04 19:25 55.62403 12.64452 24 ft 17 kts 15°
2026-05-04 19:25 55.62517 12.64487 24 ft 16 kts
2026-05-04 19:25 55.62561 12.64508 24 ft 0 kts 15°